Lid_Strength_Index
-1 -1 -1 2 7 7 9 9 7 7 7 5 4 5 6 5 7 9 1 -0 -0 -0 -1 -1 -2 -2 -2 -1 -1 -1 -1 -1 -2 -2 -1 -1 -1 -1 -1 -2 -2 -2 -1 -1 -1 -1 -1 -2 -2
-1 -0 1 3 8 10 10 7 8 7 6 5 4 5 5 6 4 3 2 -0 -1 -1 -1 -1 -2 -2 -2 -1 -1 -1 -1 -1 -1 -1 -1 -1 -1 -2 -1 -2 -2 -2 -1 -1 -1 -1 -1 -1 -1
-0 0 3 5 7 10 9 7 7 6 5 5 6 4 5 5 3 2 0 -0 -1 -1 -1 -2 -2 -1 -2 -2 -2 -1 -1 -1 -1 -1 -1 -1 -1 -2 -2 -2 -2 -2 -2 -2 -1 -1 -1 -1 -1
1 2 3 7 8 7 7 6 5 6 5 4 5 6 4 2 3 1 -0 -1 -0 -1 -1 -1 -1 -2 -1 -2 -2 -1 -1 -1 -2 -1 -1 -1 -1 -1 -2 -2 -2 -2 -2 -2 -1 -1 -1 -1 -1
1 3 6 8 7 6 5 5 5 6 6 5 5 6 5 3 1 0 0 -0 -0 -1 -1 -1 -1 -2 -2 -2 -2 -1 -1 -1 -2 -2 -2 -2 -1 -2 -2 -2 -1 -2 -1 -1 -1 -1 -1 -1 -1
5 4 7 8 7 6 5 4 5 5 5 5 6 5 5 1 1 1 -0 -0 -1 -0 -1 -1 -1 -1 -1 -1 -2 -1 -1 -1 -2 -2 -2 -2 -2 -2 -2 -2 -1 -1 -1 -1 -1 -1 -1 -1 -1
6 6 8 8 7 6 5 4 5 5 5 5 4 6 4 3 1 0 -0 -0 -1 -1 -1 -1 -1 -2 -2 -1 -1 -1 -1 -1 -1 -1 -2 -2 -2 -2 -2 -2 -1 -1 -1 -1 -1 -1 -1 -1 -1
5 6 8 8 8 7 4 4 4 4 5 3 3 6 6 3 1 0 0 -0 -0 -1 -1 -1 -1 -1 -1 -2 -1 -1 -1 -1 -1 -1 -1 -2 -2 -1 -1 -2 -1 -1 -1 -1 -1 -1 -1 -1 -1
5 8 9 8 8 6 4 5 3 3 4 4 4 3 3 1 1 1 1 1 0 0 -0 -1 -1 -1 -1 -2 -1 -1 -1 -1 -1 -1 -1 -2 -2 -2 -2 -2 -1 -1 -1 -1 -1 -1 -1 -2 -2
7 8 8 7 6 7 5 4 4 5 4 5 4 3 2 2 2 3 3 2 1 1 0 -1 -1 -1 -1 -1 -2 -2 -2 -2 -2 -2 -2 -2 -2 -2 -2 -2 -1 -1 -1 -1 -1 -2 -2 -2 -2
7 8 7 7 6 6 6 6 4 5 5 4 4 3 3 3 3 3 3 2 1 1 0 -0 -1 -1 -1 -1 -1 -1 -1 -1 -2 -2 -2 -2 -2 -2 -2 -2 -2 -2 -2 -2 -2 -2 -2 -1 -2
9 7 7 7 7 7 8 6 7 6 5 3 4 2 3 3 3 3 3 2 1 1 0 -0 -1 -1 -1 -1 -1 -1 -1 -1 -1 -1 -2 -2 -1 -2 -1 -1 -1 -2 -2 -2 -2 -1 -2 -2 -2
8 8 7 6 7 7 6 7 7 6 4 2 2 3 3 3 3 2 2 1 1 1 0 -0 -1 -1 -1 -1 -1 -1 -1 -1 -1 -2 -2 -2 -1 -1 -1 -1 -1 -1 -2 -1 -1 -1 -1 -1 -1
7 7 7 6 7 7 8 7 7 5 3 3 3 3 3 3 3 2 2 2 1 1 0 -0 -0 -1 -1 -1 -1 -1 -1 -1 -1 -2 -2 -2 -2 -1 -1 -1 -1 -1 -1 -2 -1 -1 -1 -1 -1
7 8 7 7 7 7 7 8 6 4 4 4 4 4 3 3 3 3 2 2 1 1 0 -0 -0 -1 -1 -1 -1 -1 -1 -1 -1 -1 -2 -2 -2 -2 -2 -1 -1 -1 -2 -1 -2 -1 -2 -1 -1
8 8 9 7 8 6 6 8 6 4 5 5 5 4 4 3 3 2 2 1 1 1 1 -0 -0 -0 -1 -1 -1 -1 -1 -1 -1 -1 -2 -2 -2 -2 -2 -1 -1 -1 -1 -1 -1 -1 -0 -0 -1
7 8 9 8 6 6 6 7 6 5 5 6 5 4 4 4 3 2 2 1 1 1 1 0 -0 -0 -0 -1 -1 -1 -2 -1 -1 -1 -1 -2 -2 -2 -1 -1 -1 -2 -1 -1 -1 -1 -1 0 -0
9 9 8 8 7 6 7 8 6 5 5 6 5 5 5 4 4 2 2 1 1 0 0 0 0 -0 -1 -0 -0 -0 -1 -1 -1 -1 -1 -2 -2 -2 -1 -1 -1 -1 -1 -1 -1 -1 -1 -0 -0
7 8 8 7 6 7 8 8 7 6 5 6 5 5 5 5 3 2 2 1 1 1 1 1 1 0 0 0 1 1 1 0 -0 -1 -2 -2 -2 -2 -2 -1 -1 -1 -0 -1 -1 -0 -0 0 -0
7 8 8 7 7 7 8 9 7 6 6 5 5 5 5 4 4 3 2 2 1 1 1 1 1 0 0 0 0 0 0 -0 -0 -1 -1 -1 -1 -2 -1 -1 -1 -1 -0 -1 -0 -0 1 0 -0
7 8 8 8 7 7 8 9 8 6 5 5 4 4 4 4 4 3 3 3 2 2 1 1 0 0 0 -0 0 0 -0 -0 0 0 0 -1 -1 -1 -1 -1 -1 -1 -1 0 -0 -0 -0 1 0
8 7 8 8 8 10 7 11 10 8 7 6 5 5 4 4 3 3 3 4 3 2 1 0 0 0 0 -0 0 1 2 2 1 0 -0 -0 -1 -1 -1 -1 -1 -1 -0 -0 -0 -0 -0 0 2
8 7 8 8 8 8 8 10 10 8 9 7 6 5 4 3 3 3 3 2 5 2 1 1 1 0 0 0 0 1 2 1 1 0 -0 -0 -1 -1 -1 -1 -1 0 -0 -1 -1 -0 0 1 1
6 7 7 7 8 11 9 10 10 9 9 7 6 5 4 4 3 3 2 2 4 5 5 4 4 5 3 1 1 1 2 2 2 1 1 1 0 0 -0 -0 0 0 1 0 -0 1 0 0 -0
6 8 11 12 12 11 9 10 10 8 7 7 6 5 5 4 4 3 4 3 4 6 6 6 6 6 5 5 5 4 4 3 2 3 2 3 3 4 4 3 3 3 3 1 1 1 1 1 1
8 8 11 14 13 11 9 11 10 7 6 5 5 4 4 4 4 3 4 3 3 3 5 5 5 6 6 6 5 5 4 5 7 7 7 8 9 9 9 9 9 8 7 6 4 3 3 3 3
8 9 7 10 10 11 10 10 8 7 7 6 6 5 4 4 3 3 3 3 3 3 3 3 3 5 6 6 6 6 6 7 7 6 7 8 9 9 9 10 10 10 10 9 8 6 5 4 4
7 6 10 9 13 14 11 11 9 9 8 7 6 5 4 4 3 3 3 3 4 3 3 3 4 4 4 5 5 5 6 7 7 7 7 7 8 9 9 10 10 10 10 10 10 9 8 7 6
8 9 8 8 10 13 13 11 8 7 7 7 6 5 4 4 4 3 3 3 3 3 1 2 3 3 3 3 4 4 5 6 5 7 7 6 8 8 8 8 9 10 10 10 10 10 9 9 8
7 8 8 11 11 10 11 11 6 6 6 5 5 4 4 4 3 3 2 2 2 2 3 3 4 4 3 4 4 4 4 5 6 6 7 7 7 7 8 9 9 9 10 10 10 10 10 10 10